Time,TemperatureF,DewpointF,PressureIn,WindDirection,WindDirectionDegrees,WindSpeedMPH,WindSpeedGustMPH,Humidity,HourlyPrecipIn,Conditions,Clouds,dailyrainin,SoftwareType,DateUTC
2013-03-06 00:01:00,59.7,7.0,25.63,South,175,4.0,4.9,12,0.00,,---,0.00,VWS V14.01,2013-03-06 07:01:00,
2013-03-06 00:06:00,59.9,7.2,25.63,SSW,200,7.6,8.1,12,0.00,,---,0.00,VWS V14.01,2013-03-06 07:06:00,
2013-03-06 00:11:00,59.7,7.0,25.63,South,182,0.0,2.2,12,0.00,,---,0.00,VWS V14.01,2013-03-06 07:11:00,
2013-03-06 00:16:00,59.4,6.8,25.63,South,169,2.2,2.2,12,0.00,,---,0.00,VWS V14.01,2013-03-06 07:16:00,
2013-03-06 00:21:00,59.0,6.5,25.63,SSE,162,0.0,0.0,12,0.00,,---,0.00,VWS V14.01,2013-03-06 07:21:00,
2013-03-06 00:26:00,58.8,6.3,25.63,SSE,162,0.0,2.2,12,0.00,,---,0.00,VWS V14.01,2013-03-06 07:26:00,
2013-03-06 00:31:00,59.0,6.5,25.63,South,178,3.6,4.0,12,0.00,,---,0.00,VWS V14.01,2013-03-06 07:31:00,
2013-03-06 00:36:00,59.2,6.6,25.63,South,187,4.0,4.0,12,0.00,,---,0.00,VWS V14.01,2013-03-06 07:36:00,
2013-03-06 00:41:00,59.2,6.6,25.63,South,183,5.4,5.4,12,0.00,,---,0.00,VWS V14.01,2013-03-06 07:41:00,
2013-03-06 01:08:00,58.5,6.1,25.66,NW,321,3.6,3.6,12,0.00,,---,0.00,VWS V14.01,2013-03-06 08:08:00,
2013-03-06 01:13:00,57.6,5.3,25.66,NW,321,0.0,0.0,12,0.00,,---,0.00,VWS V14.01,2013-03-06 08:13:00,
2013-03-06 01:18:00,57.2,5.1,25.63,NW,321,0.0,0.0,12,0.00,,---,0.00,VWS V14.01,2013-03-06 08:18:00,
2013-03-06 01:23:00,56.8,4.8,25.63,NW,321,0.0,0.0,12,0.00,,---,0.00,VWS V14.01,2013-03-06 08:23:00,
2013-03-06 01:28:00,56.5,4.5,25.63,NW,321,0.0,0.0,12,0.00,,---,0.00,VWS V14.01,2013-03-06 08:28:00,
2013-03-06 01:33:00,56.7,4.6,25.63,SSE,159,3.6,5.8,12,0.00,,---,0.00,VWS V14.01,2013-03-06 08:33:00,
2013-03-06 01:38:00,57.7,5.5,25.63,South,181,6.3,6.3,12,0.00,,---,0.00,VWS V14.01,2013-03-06 08:38:00,
2013-03-06 01:43:00,57.7,5.5,25.63,South,174,0.0,0.0,12,0.00,,---,0.00,VWS V14.01,2013-03-06 08:43:00,
2013-03-06 01:48:00,57.2,5.1,25.63,South,175,0.0,0.0,12,0.00,,---,0.00,VWS V14.01,2013-03-06 08:48:00,
2013-03-06 01:53:00,56.1,4.2,25.63,South,175,0.0,0.0,12,0.00,,---,0.00,VWS V14.01,2013-03-06 08:53:00,
2013-03-06 01:58:00,54.5,4.7,25.63,East,100,2.7,3.1,13,0.00,,---,0.00,VWS V14.01,2013-03-06 08:58:00,
2013-03-06 02:03:00,53.4,3.8,25.63,ENE,76,0.0,0.0,13,0.00,,---,0.00,VWS V14.01,2013-03-06 09:03:00,
2013-03-06 02:08:00,54.9,5.0,25.63,South,181,6.3,6.3,13,0.00,,---,0.00,VWS V14.01,2013-03-06 09:08:00,
2013-03-06 02:13:00,55.9,4.1,25.63,South,171,8.7,11.0,12,0.00,,---,0.00,VWS V14.01,2013-03-06 09:13:00,
2013-03-06 02:18:00,55.8,3.9,25.63,South,170,6.7,8.1,12,0.00,,---,0.00,VWS V14.01,2013-03-06 09:18:00,
2013-03-06 02:23:00,55.9,4.1,25.63,South,170,8.3,10.5,12,0.00,,---,0.00,VWS V14.01,2013-03-06 09:23:00,
2013-03-06 02:28:00,56.1,4.2,25.63,SSE,168,11.9,12.3,12,0.00,,---,0.00,VWS V14.01,2013-03-06 09:28:00,
2013-03-06 02:33:00,55.6,3.8,25.63,South,182,8.7,13.6,12,0.00,,---,0.00,VWS V14.01,2013-03-06 09:33:00,
2013-03-06 02:39:00,56.1,4.2,25.63,South,181,11.0,12.8,12,0.00,,---,0.00,VWS V14.01,2013-03-06 09:39:00,
2013-03-06 02:44:00,56.1,4.2,25.63,SSE,165,15.0,15.0,12,0.00,,---,0.00,VWS V14.01,2013-03-06 09:44:00,
2013-03-06 02:49:00,56.7,4.6,25.60,South,187,15.0,15.0,12,0.00,,---,0.00,VWS V14.01,2013-03-06 09:49:00,
2013-03-06 02:54:00,55.9,4.1,25.60,South,189,6.7,10.5,12,0.00,,---,0.00,VWS V14.01,2013-03-06 09:54:00,
2013-03-06 02:59:00,55.8,3.9,25.60,South,190,8.3,8.7,12,0.00,,---,0.00,VWS V14.01,2013-03-06 09:59:00,
2013-03-06 03:04:00,55.4,3.7,25.60,South,183,6.7,8.7,12,0.00,,---,0.00,VWS V14.01,2013-03-06 10:04:00,
2013-03-06 03:09:00,55.6,3.8,25.60,SSW,192,8.1,12.3,12,0.00,,---,0.00,VWS V14.01,2013-03-06 10:09:00,
2013-03-06 03:14:00,55.4,3.7,25.60,South,191,7.6,8.1,12,0.00,,---,0.00,VWS V14.01,2013-03-06 10:14:00,
2013-03-06 03:19:00,55.6,3.8,25.60,South,182,6.3,10.5,12,0.00,,---,0.00,VWS V14.01,2013-03-06 10:19:00,
2013-03-06 03:24:00,55.9,4.1,25.60,South,182,7.6,7.6,12,0.00,,---,0.00,VWS V14.01,2013-03-06 10:24:00,
2013-03-06 03:29:00,55.8,3.9,25.60,SSW,193,10.1,10.1,12,0.00,,---,0.00,VWS V14.01,2013-03-06 10:29:00,
2013-03-06 03:34:00,55.8,3.9,25.60,South,175,7.6,7.6,12,0.00,,---,0.00,VWS V14.01,2013-03-06 10:34:00,
2013-03-06 03:39:00,55.4,3.7,25.60,South,170,8.7,8.7,12,0.00,,---,0.00,VWS V14.01,2013-03-06 10:39:00,
2013-03-06 03:44:00,55.2,5.2,25.60,South,185,6.3,8.1,13,0.00,,---,0.00,VWS V14.01,2013-03-06 10:44:00,
2013-03-06 03:49:00,55.6,3.8,25.60,South,188,6.3,6.3,12,0.00,,---,0.00,VWS V14.01,2013-03-06 10:49:00,
2013-03-06 03:54:00,55.4,3.7,25.60,South,174,7.6,7.6,12,0.00,,---,0.00,VWS V14.01,2013-03-06 10:54:00,
2013-03-06 03:59:00,55.2,5.2,25.60,South,185,8.7,8.7,13,0.00,,---,0.00,VWS V14.01,2013-03-06 10:59:00,
2013-03-06 04:04:00,55.6,3.8,25.60,South,182,8.1,10.1,12,0.00,,---,0.00,VWS V14.01,2013-03-06 11:04:00,
2013-03-06 04:09:00,55.6,3.8,25.60,South,177,8.1,8.7,12,0.00,,---,0.00,VWS V14.01,2013-03-06 11:09:00,
2013-03-06 04:14:00,55.8,3.9,25.60,SSE,166,8.7,8.7,12,0.00,,---,0.00,VWS V14.01,2013-03-06 11:14:00,
2013-03-06 04:19:00,56.1,4.2,25.60,South,181,8.3,8.3,12,0.00,,---,0.00,VWS V14.01,2013-03-06 11:19:00,
2013-03-06 04:24:00,55.9,4.1,25.60,South,189,0.0,0.0,12,0.00,,---,0.00,VWS V14.01,2013-03-06 11:24:00,
2013-03-06 04:29:00,54.0,4.2,25.60,ENE,60,3.6,3.6,13,0.00,,---,0.00,VWS V14.01,2013-03-06 11:29:00,
2013-03-06 04:34:00,52.7,3.2,25.63,ESE,117,5.8,5.8,13,0.00,,---,0.00,VWS V14.01,2013-03-06 11:34:00,
2013-03-06 04:39:00,52.2,2.8,25.63,ESE,109,2.7,3.1,13,0.00,,---,0.00,VWS V14.01,2013-03-06 11:39:00,
2013-03-06 04:44:00,51.6,4.0,25.63,East,99,4.0,5.4,14,0.00,,---,0.00,VWS V14.01,2013-03-06 11:44:00,
2013-03-06 04:49:00,51.1,3.6,25.63,ESE,114,4.9,4.9,14,0.00,,---,0.00,VWS V14.01,2013-03-06 11:49:00,
2013-03-06 04:54:00,50.7,3.3,25.63,ESE,118,2.7,5.4,14,0.00,,---,0.00,VWS V14.01,2013-03-06 11:54:00,
2013-03-06 04:59:00,50.4,3.0,25.63,ESE,120,2.7,2.7,14,0.00,,---,0.00,VWS V14.01,2013-03-06 11:59:00,
2013-03-06 05:04:00,51.1,3.6,25.63,SE,145,5.8,6.3,14,0.00,,---,0.00,VWS V14.01,2013-03-06 12:04:00,
2013-03-06 05:09:00,51.4,3.8,25.63,SSE,165,4.0,6.3,14,0.00,,---,0.00,VWS V14.01,2013-03-06 12:09:00,
2013-03-06 05:14:00,51.8,2.5,25.63,SSE,155,2.2,4.0,13,0.00,,---,0.00,VWS V14.01,2013-03-06 12:14:00,
2013-03-06 05:19:00,50.5,3.1,25.63,ESE,114,2.7,3.6,14,0.00,,---,0.00,VWS V14.01,2013-03-06 12:19:00,
2013-03-06 05:24:00,49.8,2.5,25.63,ESE,111,5.4,5.8,14,0.00,,---,0.00,VWS V14.01,2013-03-06 12:24:00,
2013-03-06 05:29:00,49.5,2.3,25.63,ESE,104,0.0,3.1,14,0.00,,---,0.00,VWS V14.01,2013-03-06 12:29:00,
2013-03-06 05:34:00,49.5,2.3,25.63,NNE,24,2.7,3.6,14,0.00,,---,0.00,VWS V14.01,2013-03-06 12:34:00,
2013-03-06 05:39:00,49.8,2.5,25.63,East,89,3.1,4.0,14,0.00,,---,0.00,VWS V14.01,2013-03-06 12:39:00,
2013-03-06 05:44:00,50.0,2.7,25.63,ESE,109,0.0,2.7,14,0.00,,---,0.00,VWS V14.01,2013-03-06 12:44:00,
2013-03-06 05:49:00,49.8,2.5,25.63,ESE,108,0.0,0.0,14,0.00,,---,0.00,VWS V14.01,2013-03-06 12:49:00,
2013-03-06 05:54:00,50.4,3.0,25.63,SE,124,0.0,0.0,14,0.00,,---,0.00,VWS V14.01,2013-03-06 12:54:00,
2013-03-06 05:59:00,50.0,2.7,25.63,SE,124,0.0,0.0,14,0.00,,---,0.00,VWS V14.01,2013-03-06 12:59:00,
2013-03-06 06:05:00,50.2,2.8,25.63,ESE,121,0.0,0.0,14,0.00,,---,0.00,VWS V14.01,2013-03-06 13:05:00,
2013-03-06 06:10:00,50.7,3.3,25.63,ESE,115,5.4,5.4,14,0.00,,---,0.00,VWS V14.01,2013-03-06 13:10:00,
2013-03-06 06:15:00,51.1,3.6,25.63,SE,129,5.8,6.3,14,0.00,,---,0.00,VWS V14.01,2013-03-06 13:15:00,
2013-03-06 06:20:00,51.3,3.7,25.63,SE,135,3.6,6.3,14,0.00,,---,0.00,VWS V14.01,2013-03-06 13:20:00,
2013-03-06 06:25:00,50.9,3.4,25.63,ESE,119,0.0,0.0,14,0.00,,---,0.00,VWS V14.01,2013-03-06 13:25:00,
2013-03-06 06:30:00,50.7,3.3,25.63,ENE,72,2.7,2.7,14,0.00,,---,0.00,VWS V14.01,2013-03-06 13:30:00,
2013-03-06 06:35:00,50.5,3.1,25.63,NE,48,3.6,4.0,14,0.00,,---,0.00,VWS V14.01,2013-03-06 13:35:00,
2013-03-06 06:40:00,50.4,3.0,25.63,East,85,3.6,4.9,14,0.00,,---,0.00,VWS V14.01,2013-03-06 13:40:00,
2013-03-06 06:45:00,50.2,2.8,25.63,NE,52,4.9,6.3,14,0.00,,---,0.00,VWS V14.01,2013-03-06 13:45:00,
2013-03-06 06:50:00,49.8,2.5,25.63,NE,40,2.7,3.6,14,0.00,,---,0.00,VWS V14.01,2013-03-06 13:50:00,
2013-03-06 06:55:00,49.5,2.3,25.63,ENE,66,4.9,4.9,14,0.00,,---,0.00,VWS V14.01,2013-03-06 13:55:00,
2013-03-06 07:00:00,49.5,2.3,25.63,ESE,118,2.7,2.7,14,0.00,,---,0.00,VWS V14.01,2013-03-06 14:00:00,
2013-03-06 07:05:00,49.3,2.1,25.63,SE,136,3.1,3.6,14,0.00,,---,0.00,VWS V14.01,2013-03-06 14:05:00,
2013-03-06 07:10:00,49.3,2.1,25.63,SE,141,5.4,5.4,14,0.00,,---,0.00,VWS V14.01,2013-03-06 14:10:00,
2013-03-06 07:15:00,49.6,2.4,25.63,SE,145,5.4,6.3,14,0.00,,---,0.00,VWS V14.01,2013-03-06 14:15:00,
2013-03-06 07:20:00,49.8,2.5,25.63,SSE,147,5.4,5.4,14,0.00,,---,0.00,VWS V14.01,2013-03-06 14:20:00,
2013-03-06 07:25:00,50.0,2.7,25.63,SSE,159,4.0,4.0,14,0.00,,---,0.00,VWS V14.01,2013-03-06 14:25:00,
2013-03-06 07:30:00,50.5,3.1,25.63,SSE,163,4.0,4.0,14,0.00,,---,0.00,VWS V14.01,2013-03-06 14:30:00,
2013-03-06 07:35:00,51.6,4.0,25.63,South,170,3.6,5.4,14,0.00,,---,0.00,VWS V14.01,2013-03-06 14:35:00,
2013-03-06 07:40:00,52.2,2.8,25.63,South,169,2.7,3.1,13,0.00,,---,0.00,VWS V14.01,2013-03-06 14:40:00,
2013-03-06 07:45:00,53.2,3.7,25.63,South,173,4.9,5.4,13,0.00,,---,0.00,VWS V14.01,2013-03-06 14:45:00,
2013-03-06 07:50:00,54.9,5.0,25.66,South,172,8.7,8.7,13,0.00,,---,0.00,VWS V14.01,2013-03-06 14:50:00,
2013-03-06 07:55:00,56.1,4.2,25.66,South,183,3.1,3.1,12,0.00,,---,0.00,VWS V14.01,2013-03-06 14:55:00,
2013-03-06 08:00:00,57.9,5.6,25.66,South,174,0.0,3.1,12,0.00,,---,0.00,VWS V14.01,2013-03-06 15:00:00,
2013-03-06 08:05:00,59.2,6.6,25.66,ESE,104,8.7,8.7,12,0.00,,---,0.00,VWS V14.01,2013-03-06 15:05:00,
2013-03-06 08:10:00,60.4,7.6,25.66,NE,38,2.7,10.5,12,0.00,,---,0.00,VWS V14.01,2013-03-06 15:10:00,
2013-03-06 08:15:00,62.2,7.1,25.66,SE,138,5.4,8.3,11,0.00,,---,0.00,VWS V14.01,2013-03-06 15:15:00,
2013-03-06 08:20:00,63.3,7.9,25.66,South,185,10.5,10.5,11,0.00,,---,0.00,VWS V14.01,2013-03-06 15:20:00,
2013-03-06 08:25:00,63.9,8.4,25.66,SSE,161,9.6,12.3,11,0.00,,---,0.00,VWS V14.01,2013-03-06 15:25:00,
2013-03-06 08:30:00,64.2,8.6,25.66,SW,232,12.8,15.4,11,0.00,,---,0.00,VWS V14.01,2013-03-06 15:30:00,
2013-03-06 08:36:00,65.1,7.2,25.66,SSE,153,10.5,11.0,10,0.00,,---,0.00,VWS V14.01,2013-03-06 15:36:00,
2013-03-06 08:41:00,66.2,8.1,25.66,South,169,14.5,15.0,10,0.00,,---,0.00,VWS V14.01,2013-03-06 15:41:00,
2013-03-06 08:46:00,66.6,8.3,25.66,South,177,14.5,15.4,10,0.00,,---,0.00,VWS V14.01,2013-03-06 15:46:00,
2013-03-06 08:51:00,66.9,8.6,25.66,South,177,16.3,16.3,10,0.00,,---,0.00,VWS V14.01,2013-03-06 15:51:00,
2013-03-06 08:56:00,67.5,9.0,25.66,SSE,154,8.7,13.2,10,0.00,,---,0.00,VWS V14.01,2013-03-06 15:56:00,
2013-03-06 09:01:00,67.8,9.3,25.66,SSE,168,17.4,17.4,10,0.00,,---,0.00,VWS V14.01,2013-03-06 16:01:00,
2013-03-06 09:06:00,68.0,9.4,25.66,SSE,164,10.5,15.0,10,0.00,,---,0.00,VWS V14.01,2013-03-06 16:06:00,
2013-03-06 09:11:00,68.5,9.8,25.66,SSE,163,10.5,15.4,10,0.00,,---,0.00,VWS V14.01,2013-03-06 16:11:00,
2013-03-06 09:16:00,68.7,10.0,25.66,SSW,199,10.1,15.0,10,0.00,,---,0.00,VWS V14.01,2013-03-06 16:16:00,
2013-03-06 09:21:00,69.3,10.4,25.66,SSW,195,10.5,15.4,10,0.00,,---,0.00,VWS V14.01,2013-03-06 16:21:00,
2013-03-06 09:26:00,70.5,9.0,25.66,SSE,154,12.8,12.8,9,0.00,,---,0.00,VWS V14.01,2013-03-06 16:26:00,
2013-03-06 09:31:00,70.2,8.7,25.66,SSE,163,11.0,12.8,9,0.00,,---,0.00,VWS V14.01,2013-03-06 16:31:00,
2013-03-06 09:36:00,70.0,8.6,25.66,SSE,162,13.6,13.6,9,0.00,,---,0.00,VWS V14.01,2013-03-06 16:36:00,
2013-03-06 09:41:00,71.1,9.4,25.66,South,173,12.8,15.4,9,0.00,,---,0.00,VWS V14.01,2013-03-06 16:41:00,
2013-03-06 09:46:00,70.0,8.6,25.66,SSE,166,10.5,15.4,9,0.00,,---,0.00,VWS V14.01,2013-03-06 16:46:00,
2013-03-06 09:51:00,71.1,9.4,25.66,South,181,13.2,14.5,9,0.00,,---,0.00,VWS V14.01,2013-03-06 16:51:00,
2013-03-06 09:56:00,72.0,10.1,25.66,SSE,162,7.6,10.5,9,0.00,,---,0.00,VWS V14.01,2013-03-06 16:56:00,
2013-03-06 10:01:00,71.1,9.4,25.66,SSE,168,11.0,12.8,9,0.00,,---,0.00,VWS V14.01,2013-03-06 17:01:00,
2013-03-06 10:06:00,72.0,10.1,25.66,South,182,11.0,11.0,9,0.00,,---,0.00,VWS V14.01,2013-03-06 17:06:00,
2013-03-06 10:11:00,72.5,10.5,25.66,SE,140,11.0,12.8,9,0.00,,---,0.00,VWS V14.01,2013-03-06 17:11:00,
2013-03-06 10:16:00,72.0,10.1,25.66,SSE,163,8.1,10.5,9,0.00,,---,0.00,VWS V14.01,2013-03-06 17:16:00,
2013-03-06 10:21:00,71.6,9.8,25.66,SSE,147,10.5,15.4,9,0.00,,---,0.00,VWS V14.01,2013-03-06 17:21:00,
2013-03-06 10:26:00,72.5,10.5,25.66,SSE,162,12.8,12.8,9,0.00,,---,0.00,VWS V14.01,2013-03-06 17:26:00,
2013-03-06 10:31:00,72.9,10.8,25.66,SSE,153,12.3,12.8,9,0.00,,---,0.00,VWS V14.01,2013-03-06 17:31:00,
2013-03-06 10:36:00,72.1,10.2,25.66,South,179,10.5,13.2,9,0.00,,---,0.00,VWS V14.01,2013-03-06 17:36:00,
2013-03-06 10:41:00,73.2,11.1,25.66,South,169,8.3,11.0,9,0.00,,---,0.00,VWS V14.01,2013-03-06 17:41:00,
2013-03-06 10:46:00,72.9,10.8,25.66,South,171,11.0,11.0,9,0.00,,---,0.00,VWS V14.01,2013-03-06 17:46:00,
2013-03-06 10:51:00,72.9,10.8,25.63,South,182,8.3,8.7,9,0.00,,---,0.00,VWS V14.01,2013-03-06 17:51:00,
2013-03-06 10:56:00,72.9,10.8,25.63,SSE,162,4.0,5.8,9,0.00,,---,0.00,VWS V14.01,2013-03-06 17:56:00,
2013-03-06 11:01:00,72.9,10.8,25.63,South,185,5.8,8.1,9,0.00,,---,0.00,VWS V14.01,2013-03-06 18:01:00,
2013-03-06 11:06:00,73.2,11.1,25.63,SSE,161,5.4,8.7,9,0.00,,---,0.00,VWS V14.01,2013-03-06 18:06:00,
2013-03-06 11:11:00,73.2,11.1,25.63,South,178,12.8,12.8,9,0.00,,---,0.00,VWS V14.01,2013-03-06 18:11:00,
2013-03-06 11:16:00,73.4,8.6,25.63,South,178,10.5,10.5,8,0.00,,---,0.00,VWS V14.01,2013-03-06 18:16:00,
2013-03-06 11:21:00,73.8,8.8,25.63,SSE,158,7.2,10.1,8,0.00,,---,0.00,VWS V14.01,2013-03-06 18:21:00,
2013-03-06 11:27:00,73.4,8.6,25.63,SSE,152,12.8,12.8,8,0.00,,---,0.00,VWS V14.01,2013-03-06 18:27:00,
2013-03-06 11:32:00,75.2,9.9,25.63,SSE,147,8.1,8.7,8,0.00,,---,0.00,VWS V14.01,2013-03-06 18:32:00,
2013-03-06 11:37:00,75.6,10.2,25.63,SSE,155,4.9,5.8,8,0.00,,---,0.00,VWS V14.01,2013-03-06 18:37:00,
2013-03-06 11:42:00,75.2,9.9,25.63,South,170,13.2,16.3,8,0.00,,---,0.00,VWS V14.01,2013-03-06 18:42:00,
2013-03-06 11:47:00,76.1,10.6,25.63,SSE,166,8.7,13.2,8,0.00,,---,0.00,VWS V14.01,2013-03-06 18:47:00,
2013-03-06 11:52:00,75.4,10.0,25.63,South,178,8.3,12.3,8,0.00,,---,0.00,VWS V14.01,2013-03-06 18:52:00,
2013-03-06 11:57:00,77.2,11.4,25.63,South,178,3.6,5.8,8,0.00,,---,0.00,VWS V14.01,2013-03-06 18:57:00,
2013-03-06 12:02:00,77.4,11.5,25.63,WNW,285,2.7,6.3,8,0.00,,---,0.00,VWS V14.01,2013-03-06 19:02:00,
2013-03-06 12:07:00,77.4,11.5,25.63,WSW,249,4.0,4.0,8,0.00,,---,0.00,VWS V14.01,2013-03-06 19:07:00,
2013-03-06 12:12:00,77.4,11.5,25.63,WSW,244,6.7,6.7,8,0.00,,---,0.00,VWS V14.01,2013-03-06 19:12:00,
2013-03-06 12:17:00,77.5,11.6,25.63,WSW,255,0.0,0.0,8,0.00,,---,0.00,VWS V14.01,2013-03-06 19:17:00,
2013-03-06 12:22:00,76.3,10.7,25.60,SW,217,5.8,8.7,8,0.00,,---,0.00,VWS V14.01,2013-03-06 19:22:00,
2013-03-06 12:27:00,76.6,11.0,25.60,SSE,156,7.6,7.6,8,0.00,,---,0.00,VWS V14.01,2013-03-06 19:27:00,
2013-03-06 12:32:00,77.4,11.5,25.60,South,179,11.9,11.9,8,0.00,,---,0.00,VWS V14.01,2013-03-06 19:32:00,
2013-03-06 12:37:00,76.6,11.0,25.60,South,186,5.8,5.8,8,0.00,,---,0.00,VWS V14.01,2013-03-06 19:37:00,
2013-03-06 12:42:00,77.5,11.6,25.60,SSE,168,8.1,8.1,8,0.00,,---,0.00,VWS V14.01,2013-03-06 19:42:00,
2013-03-06 12:47:00,79.3,10.0,25.60,SW,234,7.6,8.3,7,0.00,,---,0.00,VWS V14.01,2013-03-06 19:47:00,
2013-03-06 12:52:00,79.0,9.7,25.60,SSW,199,4.0,5.4,7,0.00,,---,0.00,VWS V14.01,2013-03-06 19:52:00,
2013-03-06 12:57:00,80.6,10.9,25.60,SW,231,12.8,12.8,7,0.00,,---,0.00,VWS V14.01,2013-03-06 19:57:00,
2013-03-06 13:02:00,82.2,12.1,25.60,South,180,3.6,5.4,7,0.00,,---,0.00,VWS V14.01,2013-03-06 20:02:00,
2013-03-06 13:07:00,81.3,11.4,25.60,WSW,247,9.2,11.0,7,0.00,,---,0.00,VWS V14.01,2013-03-06 20:07:00,
2013-03-06 13:12:00,81.5,17.3,25.60,SSW,197,12.8,12.8,9,0.00,,---,0.00,VWS V14.01,2013-03-06 20:12:00,
2013-03-06 13:17:00,80.1,10.5,25.60,South,173,11.0,12.8,7,0.00,,---,0.00,VWS V14.01,2013-03-06 20:17:00,
2013-03-06 13:22:00,81.9,11.8,25.60,SSW,206,5.4,8.7,7,0.00,,---,0.00,VWS V14.01,2013-03-06 20:22:00,
2013-03-06 13:27:00,82.9,18.4,25.60,SW,229,7.6,7.6,9,0.00,,---,0.00,VWS V14.01,2013-03-06 20:27:00,
2013-03-06 13:32:00,82.6,8.9,25.60,SSW,203,4.0,5.4,6,0.00,,---,0.00,VWS V14.01,2013-03-06 20:32:00,
2013-03-06 13:37:00,82.8,18.2,25.57,SW,218,3.1,4.0,9,0.00,,---,0.00,VWS V14.01,2013-03-06 20:37:00,
2013-03-06 13:42:00,83.5,9.5,25.57,SSW,193,5.4,6.3,6,0.00,,---,0.00,VWS V14.01,2013-03-06 20:42:00,
2013-03-06 13:47:00,83.3,18.6,25.57,WSW,257,8.3,8.3,9,0.00,,---,0.00,VWS V14.01,2013-03-06 20:47:00,
2013-03-06 13:52:00,82.9,18.4,25.57,WSW,248,5.8,8.7,9,0.00,,---,0.00,VWS V14.01,2013-03-06 20:52:00,
2013-03-06 13:57:00,83.5,18.8,25.57,SSW,198,16.3,16.3,9,0.00,,---,0.00,VWS V14.01,2013-03-06 20:57:00,
2013-03-06 14:02:00,84.4,16.7,25.57,SW,219,5.8,5.8,8,0.00,,---,0.00,VWS V14.01,2013-03-06 21:02:00,
2013-03-06 14:07:00,84.0,19.2,25.57,SSW,202,8.1,8.1,9,0.00,,---,0.00,VWS V14.01,2013-03-06 21:07:00,
2013-03-06 14:12:00,85.3,17.4,25.57,SSW,211,4.0,4.0,8,0.00,,---,0.00,VWS V14.01,2013-03-06 21:12:00,
2013-03-06 14:17:00,82.8,18.2,25.57,SSW,211,13.2,15.4,9,0.00,,---,0.00,VWS V14.01,2013-03-06 21:17:00,
2013-03-06 14:23:00,79.9,10.4,25.57,SSE,160,12.3,17.4,7,0.00,,---,0.00,VWS V14.01,2013-03-06 21:23:00,
2013-03-06 14:28:00,80.8,11.0,25.57,SSE,158,11.0,15.0,7,0.00,,---,0.00,VWS V14.01,2013-03-06 21:28:00,
2013-03-06 14:32:00,81.0,11.2,25.57,SSE,164,5.8,10.1,7,0.00,,---,0.00,VWS V14.01,2013-03-06 21:32:00,
2013-03-06 14:38:00,81.1,17.0,25.57,SSE,163,12.8,15.0,9,0.00,,---,0.00,VWS V14.01,2013-03-06 21:38:00,
2013-03-06 14:43:00,80.8,16.7,25.57,SSE,159,20.1,20.1,9,0.00,,---,0.00,VWS V14.01,2013-03-06 21:43:00,
2013-03-06 14:48:00,79.5,10.1,25.57,SSE,159,12.8,15.4,7,0.00,,---,0.00,VWS V14.01,2013-03-06 21:48:00,
2013-03-06 14:53:00,80.4,10.8,25.54,SE,145,19.2,19.2,7,0.00,,---,0.00,VWS V14.01,2013-03-06 21:53:00,
2013-03-06 14:58:00,79.5,18.2,25.54,SSW,196,21.5,28.0,10,0.00,,---,0.00,VWS V14.01,2013-03-06 21:58:00,
2013-03-06 15:03:00,79.9,10.4,25.54,South,170,14.5,15.0,7,0.00,,---,0.00,VWS V14.01,2013-03-06 22:03:00,
2013-03-06 15:08:00,79.7,10.2,25.54,SSW,199,17.0,20.1,7,0.00,,---,0.00,VWS V14.01,2013-03-06 22:08:00,
2013-03-06 15:13:00,77.2,11.4,25.54,SSE,165,15.0,22.4,8,0.00,,---,0.00,VWS V14.01,2013-03-06 22:13:00,
2013-03-06 15:18:00,78.3,12.2,25.54,SSW,198,15.0,15.0,8,0.00,,---,0.00,VWS V14.01,2013-03-06 22:18:00,
2013-03-06 15:23:00,79.0,9.7,25.54,South,189,11.9,12.8,7,0.00,,---,0.00,VWS V14.01,2013-03-06 22:23:00,
2013-03-06 15:28:00,79.2,9.8,25.54,SSE,167,8.7,11.0,7,0.00,,---,0.00,VWS V14.01,2013-03-06 22:28:00,
2013-03-06 15:33:00,80.1,10.5,25.54,SSE,165,8.3,8.3,7,0.00,,---,0.00,VWS V14.01,2013-03-06 22:33:00,
2013-03-06 15:38:00,78.6,12.4,25.54,South,183,8.7,8.7,8,0.00,,---,0.00,VWS V14.01,2013-03-06 22:38:00,
2013-03-06 15:43:00,78.4,12.3,25.54,South,175,10.5,10.5,8,0.00,,---,0.00,VWS V14.01,2013-03-06 22:43:00,
2013-03-06 15:48:00,77.9,11.9,25.54,South,177,15.4,15.4,8,0.00,,---,0.00,VWS V14.01,2013-03-06 22:48:00,
2013-03-06 15:53:00,78.3,12.2,25.54,SSE,166,15.4,15.4,8,0.00,,---,0.00,VWS V14.01,2013-03-06 22:53:00,
2013-03-06 15:58:00,77.9,11.9,25.54,SSE,168,15.4,15.4,8,0.00,,---,0.00,VWS V14.01,2013-03-06 22:58:00,
2013-03-06 16:03:00,78.4,12.3,25.54,South,170,8.7,12.8,8,0.00,,---,0.00,VWS V14.01,2013-03-06 23:03:00,
2013-03-06 16:08:00,77.5,11.6,25.54,SSW,200,13.2,15.4,8,0.00,,---,0.00,VWS V14.01,2013-03-06 23:08:00,
2013-03-06 16:13:00,77.2,11.4,25.54,SSE,158,15.0,17.4,8,0.00,,---,0.00,VWS V14.01,2013-03-06 23:13:00,
2013-03-06 16:18:00,77.2,11.4,25.54,South,188,19.7,19.7,8,0.00,,---,0.00,VWS V14.01,2013-03-06 23:18:00,
2013-03-06 16:23:00,78.1,12.0,25.54,South,190,7.6,7.6,8,0.00,,---,0.00,VWS V14.01,2013-03-06 23:23:00,
2013-03-06 16:28:00,77.2,11.4,25.54,South,184,19.2,19.2,8,0.00,,---,0.00,VWS V14.01,2013-03-06 23:28:00,
2013-03-06 16:33:00,77.2,11.4,25.54,South,183,14.1,14.1,8,0.00,,---,0.00,VWS V14.01,2013-03-06 23:33:00,
2013-03-06 16:38:00,76.3,10.7,25.54,South,187,10.1,13.6,8,0.00,,---,0.00,VWS V14.01,2013-03-06 23:38:00,
2013-03-06 16:43:00,76.1,10.6,25.54,South,185,8.1,12.8,8,0.00,,---,0.00,VWS V14.01,2013-03-06 23:43:00,
2013-03-06 16:48:00,76.1,10.6,25.54,South,181,15.4,15.4,8,0.00,,---,0.00,VWS V14.01,2013-03-06 23:48:00,
2013-03-06 16:53:00,75.6,10.2,25.54,SSE,155,16.8,16.8,8,0.00,,---,0.00,VWS V14.01,2013-03-06 23:53:00,
2013-03-06 16:58:00,75.4,10.0,25.54,South,185,18.8,19.7,8,0.00,,---,0.00,VWS V14.01,2013-03-06 23:58:00,
2013-03-06 17:03:00,75.0,9.8,25.54,South,171,16.8,16.8,8,0.00,,---,0.00,VWS V14.01,2013-03-07 00:03:00,
2013-03-06 17:08:00,74.8,9.6,25.54,SSW,201,8.3,8.7,8,0.00,,---,0.00,VWS V14.01,2013-03-07 00:08:00,
2013-03-06 17:13:00,74.8,9.6,25.54,South,180,10.5,12.8,8,0.00,,---,0.00,VWS V14.01,2013-03-07 00:13:00,
2013-03-06 17:18:00,74.3,9.2,25.54,South,175,12.8,12.8,8,0.00,,---,0.00,VWS V14.01,2013-03-07 00:18:00,
2013-03-06 17:23:00,73.8,8.8,25.54,SSE,167,15.4,20.1,8,0.00,,---,0.00,VWS V14.01,2013-03-07 00:23:00,
2013-03-06 17:28:00,73.8,8.8,25.54,South,191,5.8,10.5,8,0.00,,---,0.00,VWS V14.01,2013-03-07 00:28:00,
2013-03-06 17:33:00,73.6,8.7,25.54,South,173,8.7,12.8,8,0.00,,---,0.00,VWS V14.01,2013-03-07 00:33:00,
2013-03-06 17:38:00,72.9,10.8,25.54,SSW,208,15.0,16.8,9,0.00,,---,0.00,VWS V14.01,2013-03-07 00:38:00,
2013-03-06 17:43:00,72.3,10.4,25.54,South,173,13.2,13.2,9,0.00,,---,0.00,VWS V14.01,2013-03-07 00:43:00,
2013-03-06 17:48:00,72.1,10.2,25.54,SSW,192,8.7,12.8,9,0.00,,---,0.00,VWS V14.01,2013-03-07 00:48:00,
2013-03-06 17:54:00,71.6,9.8,25.54,South,184,9.6,9.6,9,0.00,,---,0.00,VWS V14.01,2013-03-07 00:54:00,
2013-03-06 17:58:00,71.2,9.6,25.54,WSW,241,9.6,11.9,9,0.00,,---,0.00,VWS V14.01,2013-03-07 00:58:00,
2013-03-06 18:03:00,70.3,8.9,25.54,South,180,10.5,12.3,9,0.00,,---,0.00,VWS V14.01,2013-03-07 01:03:00,
2013-03-06 18:09:00,69.6,10.7,25.54,South,170,8.1,8.3,10,0.00,,---,0.00,VWS V14.01,2013-03-07 01:09:00,
2013-03-06 18:14:00,68.9,10.1,25.54,SSW,212,8.1,11.0,10,0.00,,---,0.00,VWS V14.01,2013-03-07 01:14:00,
2013-03-06 18:19:00,68.4,9.7,25.54,SSW,199,9.6,9.6,10,0.00,,---,0.00,VWS V14.01,2013-03-07 01:19:00,
2013-03-06 18:24:00,67.8,9.3,25.54,South,178,8.7,10.1,10,0.00,,---,0.00,VWS V14.01,2013-03-07 01:24:00,
2013-03-06 18:29:00,67.5,9.0,25.54,SSW,196,4.0,8.1,10,0.00,,---,0.00,VWS V14.01,2013-03-07 01:29:00,
2013-03-06 18:34:00,66.9,8.6,25.54,South,185,5.4,5.4,10,0.00,,---,0.00,VWS V14.01,2013-03-07 01:34:00,
2013-03-06 18:39:00,66.2,8.1,25.54,South,184,3.1,3.6,10,0.00,,---,0.00,VWS V14.01,2013-03-07 01:39:00,
2013-03-06 18:44:00,65.8,7.8,25.54,SSW,197,3.1,3.6,10,0.00,,---,0.00,VWS V14.01,2013-03-07 01:44:00,
2013-03-06 18:49:00,65.5,7.5,25.54,SSW,193,2.7,3.1,10,0.00,,---,0.00,VWS V14.01,2013-03-07 01:49:00,
2013-03-06 18:54:00,65.3,7.4,25.54,SSW,213,0.0,2.2,10,0.00,,---,0.00,VWS V14.01,2013-03-07 01:54:00,
2013-03-06 18:59:00,64.8,6.9,25.54,SSW,213,0.0,0.0,10,0.00,,---,0.00,VWS V14.01,2013-03-07 01:59:00,
2013-03-06 19:04:00,64.6,6.8,25.57,WSW,254,5.4,5.4,10,0.00,,---,0.00,VWS V14.01,2013-03-07 02:04:00,
2013-03-06 19:09:00,64.4,6.7,25.57,WSW,248,7.6,7.6,10,0.00,,---,0.00,VWS V14.01,2013-03-07 02:09:00,
2013-03-06 19:14:00,64.6,6.8,25.57,WSW,250,8.1,8.1,10,0.00,,---,0.00,VWS V14.01,2013-03-07 02:14:00,
2013-03-06 19:19:00,64.8,6.9,25.57,WSW,244,8.7,8.7,10,0.00,,---,0.00,VWS V14.01,2013-03-07 02:19:00,
2013-03-06 19:24:00,64.6,6.8,25.57,West,263,4.9,4.9,10,0.00,,---,0.00,VWS V14.01,2013-03-07 02:24:00,
2013-03-06 19:29:00,64.2,8.6,25.57,West,259,8.7,8.7,11,0.00,,---,0.00,VWS V14.01,2013-03-07 02:29:00,
2013-03-06 19:34:00,64.2,8.6,25.57,West,264,4.0,8.3,11,0.00,,---,0.00,VWS V14.01,2013-03-07 02:34:00,
2013-03-06 19:39:00,64.2,8.6,25.57,WSW,240,5.8,8.1,11,0.00,,---,0.00,VWS V14.01,2013-03-07 02:39:00,
2013-03-06 19:44:00,63.7,8.2,25.57,WSW,246,2.7,4.0,11,0.00,,---,0.00,VWS V14.01,2013-03-07 02:44:00,
2013-03-06 19:49:00,63.7,8.2,25.57,WSW,248,4.9,5.8,11,0.00,,---,0.00,VWS V14.01,2013-03-07 02:49:00,
2013-03-06 19:54:00,63.5,8.1,25.57,SW,231,5.4,6.3,11,0.00,,---,0.00,VWS V14.01,2013-03-07 02:54:00,
2013-03-06 19:59:00,63.9,8.4,25.57,West,261,2.7,4.9,11,0.00,,---,0.00,VWS V14.01,2013-03-07 02:59:00,
2013-03-06 20:04:00,63.1,7.8,25.57,WSW,246,5.4,5.4,11,0.00,,---,0.00,VWS V14.01,2013-03-07 03:04:00,
2013-03-06 20:09:00,63.0,7.7,25.57,WSW,252,4.5,4.9,11,0.00,,---,0.00,VWS V14.01,2013-03-07 03:09:00,
2013-03-06 20:14:00,62.2,7.1,25.57,West,261,3.1,5.4,11,0.00,,---,0.00,VWS V14.01,2013-03-07 03:14:00,
2013-03-06 20:19:00,61.9,6.8,25.57,WSW,251,3.1,3.6,11,0.00,,---,0.00,VWS V14.01,2013-03-07 03:19:00,
2013-03-06 20:24:00,61.2,6.3,25.57,WSW,245,2.2,2.2,11,0.00,,---,0.00,VWS V14.01,2013-03-07 03:24:00,
2013-03-06 20:29:00,60.1,7.3,25.57,SE,135,3.1,4.0,12,0.00,,---,0.00,VWS V14.01,2013-03-07 03:29:00,
2013-03-06 20:34:00,59.7,7.0,25.57,SSE,147,0.0,3.1,12,0.00,,---,0.00,VWS V14.01,2013-03-07 03:34:00,
2013-03-06 20:39:00,60.6,7.8,25.57,ESE,111,4.0,4.0,12,0.00,,---,0.00,VWS V14.01,2013-03-07 03:39:00,
2013-03-06 20:44:00,60.4,7.6,25.57,ESE,102,0.0,0.0,12,0.00,,---,0.00,VWS V14.01,2013-03-07 03:44:00,
2013-03-06 20:49:00,59.7,7.0,25.57,SE,141,4.0,4.0,12,0.00,,---,0.00,VWS V14.01,2013-03-07 03:49:00,
2013-03-06 20:54:00,59.5,6.9,25.57,SSE,150,3.6,4.0,12,0.00,,---,0.00,VWS V14.01,2013-03-07 03:54:00,
2013-03-06 20:59:00,58.8,6.3,25.57,SSE,150,2.7,3.1,12,0.00,,---,0.00,VWS V14.01,2013-03-07 03:59:00,
2013-03-06 21:05:00,58.6,6.2,25.57,SSE,150,3.6,4.0,12,0.00,,---,0.00,VWS V14.01,2013-03-07 04:05:00,
2013-03-06 21:10:00,58.3,5.9,25.57,SSE,151,3.1,4.9,12,0.00,,---,0.00,VWS V14.01,2013-03-07 04:10:00,
2013-03-06 21:15:00,57.9,5.6,25.57,SSE,166,4.9,5.4,12,0.00,,---,0.00,VWS V14.01,2013-03-07 04:15:00,
2013-03-06 21:20:00,57.2,5.1,25.57,SSE,153,5.4,5.4,12,0.00,,---,0.00,VWS V14.01,2013-03-07 04:20:00,
2013-03-06 21:25:00,56.8,4.8,25.57,SSE,158,4.9,6.3,12,0.00,,---,0.00,VWS V14.01,2013-03-07 04:25:00,
2013-03-06 21:30:00,56.7,4.6,25.57,SSE,152,6.3,7.6,12,0.00,,---,0.00,VWS V14.01,2013-03-07 04:30:00,
2013-03-06 21:35:00,55.9,4.1,25.57,SSE,150,5.4,6.3,12,0.00,,---,0.00,VWS V14.01,2013-03-07 04:35:00,
2013-03-06 21:40:00,55.4,3.7,25.57,SE,145,5.8,6.3,12,0.00,,---,0.00,VWS V14.01,2013-03-07 04:40:00,
2013-03-06 21:45:00,54.7,4.8,25.57,SSE,168,5.4,5.4,13,0.00,,---,0.00,VWS V14.01,2013-03-07 04:45:00,
2013-03-06 21:50:00,54.1,4.4,25.57,SSE,149,4.5,5.4,13,0.00,,---,0.00,VWS V14.01,2013-03-07 04:50:00,
2013-03-06 21:55:00,53.8,4.1,25.57,SSE,164,5.8,5.8,13,0.00,,---,0.00,VWS V14.01,2013-03-07 04:55:00,
2013-03-06 22:00:00,53.4,3.8,25.57,SSE,161,6.3,6.7,13,0.00,,---,0.00,VWS V14.01,2013-03-07 05:00:00,
2013-03-06 22:05:00,52.9,3.4,25.57,SSE,159,4.9,6.3,13,0.00,,---,0.00,VWS V14.01,2013-03-07 05:05:00,
2013-03-06 22:11:00,52.3,3.0,25.57,SSE,154,5.4,5.4,13,0.00,,---,0.00,VWS V14.01,2013-03-07 05:11:00,
2013-03-06 22:16:00,52.0,2.7,25.57,SSE,163,5.4,5.4,13,0.00,,---,0.00,VWS V14.01,2013-03-07 05:16:00,
2013-03-06 22:21:00,51.8,2.5,25.57,SE,146,5.8,8.1,13,0.00,,---,0.00,VWS V14.01,2013-03-07 05:21:00,
2013-03-06 22:26:00,52.5,3.1,25.57,SSE,164,5.4,7.6,13,0.00,,---,0.00,VWS V14.01,2013-03-07 05:26:00,
2013-03-06 22:31:00,53.2,3.7,25.57,SSE,167,5.8,6.3,13,0.00,,---,0.00,VWS V14.01,2013-03-07 05:31:00,
2013-03-06 22:36:00,54.0,4.2,25.57,SSE,149,8.7,8.7,13,0.00,,---,0.00,VWS V14.01,2013-03-07 05:36:00,
2013-03-06 22:41:00,54.7,4.8,25.57,SSE,150,8.1,8.3,13,0.00,,---,0.00,VWS V14.01,2013-03-07 05:41:00,
2013-03-06 22:46:00,54.5,4.7,25.57,SE,131,6.7,7.6,13,0.00,,---,0.00,VWS V14.01,2013-03-07 05:46:00,
2013-03-06 22:51:00,54.5,4.7,25.57,SE,144,5.8,6.3,13,0.00,,---,0.00,VWS V14.01,2013-03-07 05:51:00,
2013-03-06 22:56:00,54.1,4.4,25.57,SSE,150,6.7,8.3,13,0.00,,---,0.00,VWS V14.01,2013-03-07 05:56:00,
2013-03-06 23:01:00,54.0,4.2,25.57,SSE,151,5.8,5.8,13,0.00,,---,0.00,VWS V14.01,2013-03-07 06:01:00,
2013-03-06 23:06:00,54.0,4.2,25.57,SSE,151,5.4,6.3,13,0.00,,---,0.00,VWS V14.01,2013-03-07 06:06:00,
2013-03-06 23:11:00,54.7,4.8,25.57,SE,146,6.3,6.3,13,0.00,,---,0.00,VWS V14.01,2013-03-07 06:11:00,
2013-03-06 23:16:00,55.6,3.8,25.57,SE,146,9.2,9.2,12,0.00,,---,0.00,VWS V14.01,2013-03-07 06:16:00,
2013-03-06 23:21:00,55.6,3.8,25.57,SSE,163,7.6,7.6,12,0.00,,---,0.00,VWS V14.01,2013-03-07 06:21:00,
2013-03-06 23:26:00,55.2,5.2,25.57,ESE,116,4.0,6.3,13,0.00,,---,0.00,VWS V14.01,2013-03-07 06:26:00,
2013-03-06 23:31:00,54.0,4.2,25.57,SE,135,5.8,6.3,13,0.00,,---,0.00,VWS V14.01,2013-03-07 06:31:00,
2013-03-06 23:36:00,54.0,4.2,25.57,SSE,155,7.2,7.2,13,0.00,,---,0.00,VWS V14.01,2013-03-07 06:36:00,
2013-03-06 23:41:00,54.1,4.4,25.57,SE,134,5.4,6.3,13,0.00,,---,0.00,VWS V14.01,2013-03-07 06:41:00,
2013-03-06 23:46:00,54.0,4.2,25.57,SSE,156,8.1,8.1,13,0.00,,---,0.00,VWS V14.01,2013-03-07 06:46:00,
2013-03-06 23:51:00,54.3,4.5,25.57,SSE,156,9.6,9.6,13,0.00,,---,0.00,VWS V14.01,2013-03-07 06:51:00,
2013-03-06 23:56:00,55.0,5.1,25.57,SSE,153,8.3,10.5,13,0.00,,---,0.00,VWS V14.01,2013-03-07 06:56:00,